Regional Weather Roundup
Issued by NWS

Home | Current Version | Previous Version | Graphics & Text | Print | Product List | Glossary On
Versions: 1 2 3 4 5 6 7 8 9 10 11 12 13 14 15 16 17 18 19 20 21 22 23 24 25 26 27 28 29 30 31 32 33 34 35 36 37 38 39 40 41 42 43 44 45 46 47 48 49 50
000
ASUS43 KOAX 271710
RWRNE

WEATHER ROUNDUP FOR NEBRASKA
NATIONAL WEATHER SERVICE OMAHA NE
1200 PM CDT SUN MAY 27 2018

NOTES: SATELLITE DATA IS BEING USED TO AUGMENT CLOUD COVER ABOVE
       12000 FEET.
       "FAIR" INDICATES FEW OR NO CLOUDS BELOW 12,000 FEET WITH NO
       SIGNIFICANT WEATHER AND/OR OBSTRUCTIONS TO VISIBILITY.


NEZ001>004-019>022-054>056-271800-
NEBRASKA PANHANDLE

CITY           SKY/WX    TMP DP  RH WIND       PRES   REMARKS
SCOTTSBLUFF    CLOUDY    77  58  51 N6        29.87S
ALLIANCE       CLOUDY    75  57  53 W5        29.85F
CHADRON        PTSUNNY   76  61  59 NE13      29.86S
GORDON         FAIR      78  59  51 S3        29.86R
KIMBALL        PTSUNNY   73  59  61 N16       29.92F
SIDNEY         CLOUDY    76  57  51 E7        29.89F
$$

NEZ057>060-069>072-079>082-271800-
SOUTHWEST NEBRASKA

CITY           SKY/WX    TMP DP  RH WIND       PRES   REMARKS
NORTH PLATTE   CLOUDY    85  67  54 SE8       29.86S
IMPERIAL       CLOUDY    83  63  50 S17G31    29.85R
LEXINGTON      PTSUNNY   87  61  41 S17G24    29.87F
MCCOOK         PTSUNNY   87  62  43 S18G28    29.85F
OGALLALA       CLOUDY    84  64  50 S7        29.86F
$$

NEZ005>010-023>029-035>040-094-271800-
NORTH CENTRAL NEBRASKA

CITY           SKY/WX    TMP DP  RH WIND       PRES   REMARKS
VALENTINE      MOSUNNY   89  60  37 S17G26    29.81F
AINSWORTH      PTSUNNY   84  62  47 S20G28    29.83R
BROKEN BOW     CLOUDY    87  62  43 S14G23    29.87S
O`NEILL        MOSUNNY   89  62  40 SW14G22   29.83F
ORD            CLOUDY    85  61  44 S23G30    29.85S
THEDFORD       PTSUNNY   87  58  38 S24G30    29.86R
$$

NEZ041-046>049-061>064-073>077-083>087-271800-
SOUTH CENTRAL NEBRASKA

CITY           SKY/WX    TMP DP  RH WIND       PRES   REMARKS
GRAND ISLAND   CLOUDY    90  57  32 SW18G26   29.89R
AURORA         MOSUNNY   90  57  32 SW13G20   29.88S
HASTINGS       MOSUNNY   89  60  37 SW12G20   29.89S
HEBRON         CLOUDY    92  56  29 SW14G20   29.88S HX  90
HOLDREGE       MOSUNNY   88  59  37 S20       29.88S
KEARNEY        CLOUDY    88  61  40 S15G22    29.89S
YORK           CLOUDY    91  57  31 SW16      29.88S HX  90
$$

NEZ011>018-030>034-042>045-271800-
NORTHEAST NEBRASKA

CITY           SKY/WX    TMP DP  RH WIND       PRES   REMARKS
NORFOLK        SUNNY     94  53  25 SW16G28   29.84R HX  91
ALBION         MOSUNNY   89  63  41 SW16      29.86S
BLAIR          SUNNY     92  60  34 S12       29.88S HX  91
COLUMBUS       MOSUNNY   93  61  34 SW10      29.86S HX  93
FREMONT        SUNNY     96  55  25 SW9       29.86S HX  93
TEKAMAH        SUNNY     94  58  29 S8        29.84S HX  93
WAYNE          SUNNY     91  57  32 SW13G21   29.84R
$$

NEZ050>053-065>068-078-088>093-271800-
SOUTHEAST NEBRASKA

CITY           SKY/WX    TMP DP  RH WIND       PRES   REMARKS
LINCOLN        SUNNY     93  60  33 SW15      29.87S HX  93
OMAHA EPPLEY   MOSUNNY   93  61  34 SW9       29.86S HX  93
BEATRICE       MOSUNNY   91  63  39 SW15      29.88S HX  92
FALLS CITY     SUNNY     93  63  36 SW10G17   29.88R HX  94
NEBRASKA CITY  SUNNY     92  62  36 SW7       29.89R HX  93
PLATTSMOUTH    SUNNY     93  58  30 SW9G17    29.88S HX  92
$$

NEZ044-045-051>053-067-271800-
OMAHA AREA

CITY           SKY/WX    TMP DP  RH WIND       PRES   REMARKS
OMAHA EPPLEY   MOSUNNY   93  61  34 SW9       29.86S HX  93
BLAIR          SUNNY     92  60  34 S12       29.88S HX  91
FREMONT        SUNNY     96  55  25 SW9       29.86S HX  93
MILLARD        SUNNY     93  63  37 W8        29.87R HX  94
OFFUTT AFB     SUNNY     93  60  33 SW6       29.86S HX  93
PLATTSMOUTH    SUNNY     93  58  30 SW9G17    29.88S HX  92
WAHOO          FAIR      96  49  20 S10       29.86S HX  92
$$




USA.gov is the U.S. government's official web portal to all federal, state and local government web resources and services.